Martinsville, VA

3:28 AM EST on January 20, 2018 (GMT -0500)
Blue Ridge

Weather History for KMTV - August, 2014

Change the Weather History Date:

Wednesday, August 27, 2014

  Actual Average (KINT) Record (KINT)
Temperature  
Mean Temperature 69 °F -  
Max Temperature 86 °F 82 °F 96 °F (1975)
Min Temperature 52 °F 65 °F 33 °F (1996)
Cooling Degree Days 4    
Growing Degree Days 19 (Base 50)    
Moisture  
Dew Point 61 °F    
Average Humidity 80    
Maximum Humidity 100    
Minimum Humidity 42    
Precipitation  
Precipitation 0.00 in - - ()
Sea Level Pressure  
Sea Level Pressure 30.10 in    
Wind  
Wind Speed 1 mph (NNE)    
Max Wind Speed 8 mph    
Max Gust Speed -    
Visibility 9 miles    
Events      
Averages and records for this station are not official NWS values.
T = Trace of Precipitation, MM = Missing Value Source: NWS Daily Summary

Daily Weather History Graph

Daily Weather History Graph

Search for Another Location

Airport or City:

Trip Planner

Search our weather history database for the weather conditions in past years. The results will help you decide how hot, cold, wet, or windy it might be!

Date:

Astronomy

Aug. 27, 2014 Rise Set
Actual Time 6:47 AM EDT 7:55 PM EDT
Civil Twilight 6:20 AM EDT 8:21 PM EDT
Nautical Twilight 5:48 AM EDT 8:53 PM EDT
Astronomical Twilight 5:15 AM EDT 9:26 PM EDT
Moon 8:37 AM EDT (8/27) 8:51 PM EDT (8/27)
Length of Visible Light 14h 01m
Length of Day
13h 08m
Waxing Crescent, 4% of the Moon is Illuminated
Aug 27
Waxing Crescent
Sep 2
First Quarter
Sep 8
Full
Sep 15
Last Quarter
Sep 24
New

Hourly Weather History & Observations

Time (EDT) Temp. Heat Index Dew Point Humidity Pressure Visibility Wind Dir Wind Speed Gust Speed Precip Events Conditions
12:15 AM 58.1 °F - 58.1 °F 100% 30.15 in 5.0 mi Calm Calm - N/A   Clear
12:35 AM 58.1 °F - 58.1 °F 100% 30.14 in 7.0 mi Calm Calm - N/A   Clear
12:55 AM 57.6 °F - 57.6 °F 100% 30.15 in 4.0 mi Calm Calm - N/A   Clear
1:15 AM 57.0 °F - 57.0 °F 100% 30.14 in 7.0 mi Calm Calm - N/A   Clear
1:35 AM 56.7 °F - 56.7 °F 100% 30.14 in 5.0 mi Calm Calm - N/A   Clear
1:55 AM 55.9 °F - 55.9 °F 100% 30.13 in 7.0 mi Calm Calm - N/A   Clear
2:15 AM 56.3 °F - 56.3 °F 100% 30.13 in 4.0 mi Calm Calm - N/A   Clear
2:35 AM 55.8 °F - 55.8 °F 100% 30.12 in 3.0 mi Calm Calm - N/A   Clear
2:55 AM 55.4 °F - 55.4 °F 100% 30.12 in 7.0 mi Calm Calm - N/A   Clear
3:15 AM 55.4 °F - 55.4 °F 100% 30.12 in 7.0 mi Calm Calm - N/A   Clear
3:35 AM 54.7 °F - 54.7 °F 100% 30.12 in 7.0 mi Calm Calm - N/A   Clear
3:55 AM 54.3 °F - 54.3 °F 100% 30.11 in 7.0 mi Calm Calm - N/A   Clear
4:15 AM 54.3 °F - 54.3 °F 100% 30.11 in 7.0 mi Calm Calm - N/A   Clear
4:35 AM 54.5 °F - 54.5 °F 100% 30.12 in 2.5 mi Calm Calm - N/A   Clear
4:55 AM 53.8 °F - 53.8 °F 100% 30.12 in 10.0 mi Calm Calm - N/A   Clear
5:15 AM 53.8 °F - 53.8 °F 100% 30.12 in 10.0 mi Calm Calm - N/A   Clear
5:35 AM 53.8 °F - 53.8 °F 100% 30.13 in 7.0 mi Calm Calm - N/A   Clear
5:55 AM 53.4 °F - 53.4 °F 100% 30.13 in 2.5 mi Calm Calm - N/A   Clear
6:15 AM 52.9 °F - 52.9 °F 100% 30.13 in 10.0 mi Calm Calm - N/A   Clear
6:35 AM 53.8 °F - 53.8 °F 100% 30.13 in 7.0 mi Calm Calm - N/A   Clear
6:55 AM 52.9 °F - 52.9 °F 100% 30.14 in 5.0 mi Calm Calm - N/A   Clear
7:15 AM 53.8 °F - 53.8 °F 100% 30.15 in 7.0 mi Calm Calm - N/A   Clear
7:35 AM 55.0 °F - 55.0 °F 100% 30.15 in 10.0 mi Calm Calm - N/A   Clear
7:55 AM 57.2 °F - 57.2 °F 100% 30.15 in 10.0 mi Calm Calm - N/A   Clear
8:15 AM 60.1 °F - 59.7 °F 99% 30.16 in 10.0 mi Calm Calm - N/A   Clear
8:35 AM 62.6 °F - 61.0 °F 94% 30.16 in 10.0 mi Calm Calm - N/A   Clear
8:55 AM 65.1 °F - 63.1 °F 93% 30.17 in 10.0 mi Calm Calm - N/A   Clear
9:15 AM 68.2 °F - 63.7 °F 85% 30.16 in 10.0 mi Calm Calm - N/A   Clear
9:35 AM 70.7 °F - 63.5 °F 78% 30.16 in 10.0 mi Calm Calm - N/A   Clear
9:55 AM 74.1 °F - 63.9 °F 70% 30.16 in 10.0 mi Calm Calm - N/A   Clear
10:15 AM 75.4 °F - 63.0 °F 65% 30.16 in 10.0 mi Calm Calm - N/A   Clear
10:35 AM 76.8 °F - 62.6 °F 61% 30.16 in 10.0 mi Calm Calm - N/A   Clear
10:55 AM 78.8 °F - 62.2 °F 57% 30.16 in 10.0 mi NNE 3.5 mph - N/A   Clear
11:15 AM 78.6 °F - 62.1 °F 57% 30.15 in 10.0 mi Calm Calm - N/A   Clear
11:55 AM 80.6 °F 81.7 °F 61.9 °F 53% 30.15 in 10.0 mi ENE 4.6 mph - N/A   Clear
12:15 PM 81.9 °F 82.8 °F 62.2 °F 51% 30.13 in 10.0 mi NNE 5.8 mph - N/A   Clear
12:35 PM 81.7 °F 82.7 °F 62.4 °F 52% 30.13 in 10.0 mi NNW 6.9 mph - N/A   Clear
12:55 PM 82.0 °F 82.5 °F 60.6 °F 48% 30.12 in 10.0 mi Calm Calm - N/A   Clear
1:15 PM 81.9 °F 82.5 °F 61.2 °F 49% 30.11 in 10.0 mi Calm Calm - N/A   Clear
1:35 PM 83.7 °F 84.3 °F 61.9 °F 48% 30.11 in 10.0 mi SE 4.6 mph - N/A   Clear
1:55 PM 83.7 °F 84.7 °F 63.3 °F 50% 30.10 in 10.0 mi Calm Calm - N/A   Clear
2:15 PM 84.0 °F 84.7 °F 62.6 °F 48% 30.10 in 10.0 mi Calm Calm - N/A   Clear
2:35 PM 84.4 °F 85.2 °F 62.6 °F 48% 30.09 in 10.0 mi Calm Calm - N/A   Clear
2:55 PM 85.5 °F 86.6 °F 63.7 °F 48% 30.08 in 10.0 mi Calm Calm - N/A   Clear
3:15 PM 85.6 °F 85.9 °F 61.5 °F 44% 30.08 in 10.0 mi NNE 3.5 mph - N/A   Clear
3:35 PM 85.8 °F 86.1 °F 61.3 °F 44% 30.07 in 10.0 mi NNE 3.5 mph - N/A   Clear
3:55 PM 86.4 °F 86.3 °F 60.8 °F 42% 30.06 in 10.0 mi NE 6.9 mph - N/A   Clear
4:15 PM 85.8 °F 85.9 °F 60.6 °F 43% 30.06 in 10.0 mi North 4.6 mph - N/A   Clear
4:35 PM 86.2 °F 86.3 °F 61.5 °F 43% 30.06 in 10.0 mi North 3.5 mph - N/A   Clear
4:55 PM 86.4 °F 86.8 °F 61.9 °F 44% 30.06 in 10.0 mi NNW 8.1 mph - N/A   Clear
5:15 PM 85.5 °F 85.7 °F 61.5 °F 44% 30.06 in 10.0 mi NNW 5.8 mph - N/A   Clear
5:35 PM 85.6 °F 85.7 °F 61.0 °F 43% 30.05 in 10.0 mi NNE 3.5 mph - N/A   Clear
5:55 PM 85.5 °F 85.7 °F 61.2 °F 44% 30.04 in 10.0 mi NE 4.6 mph - N/A   Clear
6:15 PM 85.3 °F 85.7 °F 61.5 °F 45% 30.04 in 10.0 mi Calm Calm - N/A   Clear
6:35 PM 84.0 °F 86.3 °F 66.4 °F 55% 30.04 in 10.0 mi Calm Calm - N/A   Clear
6:55 PM 79.7 °F - 69.6 °F 71% 30.04 in 10.0 mi Calm Calm - N/A   Clear
7:15 PM 76.5 °F - 70.2 °F 81% 30.03 in 10.0 mi Calm Calm - N/A   Clear
7:35 PM 73.6 °F - 68.9 °F 85% 30.03 in 10.0 mi Calm Calm - N/A   Clear
7:55 PM 71.8 °F - 69.4 °F 92% 30.03 in 10.0 mi Calm Calm - N/A   Clear
8:15 PM 70.7 °F - 68.9 °F 94% 30.03 in 10.0 mi Calm Calm - N/A   Clear
8:35 PM 69.8 °F - 68.4 °F 95% 30.03 in 10.0 mi Calm Calm - N/A   Clear
8:55 PM 69.1 °F - 68.5 °F 98% 30.04 in 10.0 mi Calm Calm - N/A   Clear
9:15 PM 68.0 °F - 67.5 °F 98% 30.04 in 10.0 mi Calm Calm - N/A   Clear
9:35 PM 68.0 °F - 68.0 °F 100% 30.05 in 10.0 mi Calm Calm - N/A   Clear
9:55 PM 68.0 °F - 67.5 °F 98% 30.05 in 10.0 mi Calm Calm - N/A   Clear
10:15 PM 67.1 °F - 66.7 °F 99% 30.05 in 10.0 mi Calm Calm - N/A   Clear
10:35 PM 67.1 °F - 66.7 °F 99% 30.05 in 10.0 mi Calm Calm - N/A   Clear
10:55 PM 66.2 °F - 66.0 °F 99% 30.05 in 7.0 mi Calm Calm - N/A   Clear
11:15 PM 66.2 °F - 66.2 °F 100% 30.05 in 10.0 mi Calm Calm - N/A   Clear
11:35 PM 66.2 °F - 66.2 °F 100% 30.05 in 7.0 mi Calm Calm - N/A   Clear
11:55 PM 65.5 °F - 65.5 °F 100% 30.04 in 7.0 mi Calm Calm - N/A   Clear